Flag for Iran Weather past 2 weeks in Mashhad, Iran

Now
86 °F

Sunny.


Feels Like: 83 °F
Forecast: 78 / 103 °F
Wind: 14 mph from Northwest

Location: Mashhad Airport

Current Time: Jul 2, 2015 at 9:03:57 AM

Latest Report: Jul 2, 2015 at 8:00 AM


Visibility: 10 mi

Pressure: 30.01 "Hg

Humidity: 17%

Dew point: 36 °F

Location of MashhadLocation

Historic Weather in Mashhad — Graph

°F

Mashhad temperature yesterday

Maximum temperature yesterday: 100 °F (at 1:30 PM)
Minimum temperature yesterday: 77 °F (at 4:30 AM)
Average temperature yesterday: 90 °F

Past Weeks' High & Low Weather Summary

 TemperatureHumidityPressure
High104 °F (Jun 29, 3:00 PM)39% (Jun 30, 5:30 AM)30.01 "Hg (Jun 30, 5:30 AM)
Low64 °F (Jun 26, 5:30 AM)4% (Jun 25, 3:30 PM)29.62 "Hg (Jun 26, 5:30 PM)
Average87 °F15%29.82 "Hg
* Reported Jun 17 6:30 AM — Jul 2 7:00 AM, Mashhad, Weather by CustomWeather, © 2015

Note: Actual official high and low records may vary slightly from our data, if they occured in-between our weather recording intervals... More about our weather records

Advertising

Mashhad weather history for previous 24 hours

 ConditionsComfort  
Time TempWeatherWind HumidityBarometerVisibility
7:00 AM
Thu, Jul 2
84 °FSunny.7 mph20%30.01 "Hg10 mi
6:30 AM82 °FClear.5 mph21%29.98 "Hg10 mi
5:30 AM79 °FClear.7 mph21%29.98 "Hg10 mi
5:00 AM77 °FClear.7 mph24%29.98 "Hg10 mi
4:30 AM81 °FClear.5 mph21%29.98 "Hg10 mi
4:00 AM79 °FClear.9 mph23%29.98 "Hg10 mi
3:30 AM82 °FClear.7 mph19%29.98 "Hg10 mi
2:30 AM82 °FClear.5 mph20%29.95 "Hg10 mi
2:00 AM82 °FClear.7 mph19%29.98 "Hg10 mi
1:30 AM82 °FClear.7 mph19%29.98 "Hg10 mi
1:00 AM84 °FClear.7 mph19%29.98 "Hg10 mi
12:30 AM84 °FClear.5 mph16%29.98 "Hg10 mi
12:00 AM84 °FClear.7 mph19%29.98 "Hg10 mi
11:30 PM
Wed, Jul 1
86 °FClear.No wind17%29.98 "Hg10 mi
11:00 PM88 °FClear.7 mph16%29.98 "Hg10 mi
10:30 PM88 °FClear.7 mph13%29.98 "Hg10 mi
9:50 PM88 °FClear.5 mph13%29.98 "Hg10 mi
9:30 PM90 °FClear.9 mph13%29.95 "Hg10 mi
9:00 PM91 °FSunny.12 mph11%29.95 "Hg10 mi
8:30 PM91 °FSunny.16 mph12%29.95 "Hg10 mi
8:00 PM93 °FSunny.16 mph11%29.95 "Hg10 mi
7:30 PM95 °FSunny.18 mph11%29.95 "Hg10 mi
7:00 PM95 °FSunny.18 mph10%29.92 "Hg10 mi
6:30 PM97 °FSunny.23 mph10%29.92 "Hg10 mi
6:00 PM99 °FSunny.21 mph9%29.92 "Hg10 mi
5:30 PM99 °FSunny.16 mph9%29.92 "Hg10 mi
5:00 PM100 °FSunny.18 mph8%29.92 "Hg10 mi
4:30 PM100 °FSunny.16 mph8%29.92 "Hg10 mi
4:00 PM100 °FSunny.14 mph8%29.92 "Hg10 mi
3:30 PM100 °FSunny.25 mph9%29.92 "Hg10 mi
3:00 PM100 °FSunny.23 mph8%29.92 "Hg10 mi
2:30 PM100 °FSunny.18 mph7%29.95 "Hg10 mi
2:00 PM99 °FSunny.21 mph8%29.95 "Hg10 mi
1:30 PM100 °FSunny.25 mph7%29.95 "Hg10 mi
12:50 PM99 °FSunny.23 mph8%29.95 "Hg10 mi
12:30 PM99 °FSunny.23 mph8%29.98 "Hg10 mi
12:00 PM99 °FSunny.21 mph8%29.98 "Hg10 mi
11:30 AM97 °FSunny.18 mph9%29.98 "Hg10 mi
11:00 AM99 °FSunny.21 mph8%29.98 "Hg10 mi
10:30 AM97 °FSunny.12 mph11%29.98 "Hg10 mi
10:00 AM97 °FSunny.9 mph9%29.98 "Hg10 mi
9:30 AM93 °FSunny.14 mph11%29.98 "Hg10 mi
9:00 AM93 °FSunny.9 mph11%29.98 "Hg10 mi
Weather by CustomWeather, © 2015

See weather overviewHow to use our weather pages